Regional Weather Roundup
Issued by NWS

Home | Current Version | Previous Version | Text Only | Print | Product List | Glossary Off
Versions: 1 2 3 4 5 6 7 8 9 10 11 12 13 14 15 16 17 18 19 20 21 22 23 24 25 26 27

000
ASUS45 KCYS 241710
RWRWY

WYOMING REGIONAL WEATHER ROUNDUP
NATIONAL WEATHER SERVICE CHEYENNE WY
1100 AM MDT WED MAY 24 2017

NOTE:  "FAIR" INDICATES FEW OR NO CLOUDS BELOW 12,000 FEET
WITH NO SIGNIFICANT WEATHER AND/OR OBSTRUCTIONS TO VISIBILITY.

WYZ001-241800-
YELLOWSTONE NATIONAL PARK

CITY           SKY/WX    TMP DP  RH WIND       PRES   REMARKS
LK YELLOWSTONE   N/A     59  35  40 W8G22     29.75F
W YELLOWSTONE  NOT AVBL

$$
WYZ002>013-054>058-071-098>099-241800-
NORTHERN WYOMING

CITY           SKY/WX    TMP DP  RH WIND       PRES   REMARKS
JACKSON        MOSUNNY   64  37  36 S23       29.75F
CODY           FAIR      75  38  26 VRB7      29.55F
GREYBULL       FAIR      73  35  25 S12       29.52F
WORLAND        FAIR      73  41  31 S10       29.54F
SHERIDAN       FAIR      75  57  53 NE7       29.47F
BUFFALO        FAIR      75  49  39 SE10      29.55F
GILLETTE       FAIR      69  50  50 S16       29.54F
HULETT         FAIR      70  37  30 S16       29.56F
NEWCASTLE      FAIR      63  34  34 S14G22    29.64F

$$
WYZ014>020-022>026-101>103-241800-
CENTRAL WYOMING

CITY           SKY/WX    TMP DP  RH WIND       PRES   REMARKS
BIG PINEY      FAIR      69  35  28 W23G29    29.83F
PINEDALE       PTSUNNY   63  34  34 SW5       29.84F
DUBOIS         FAIR      63  32  31 W28G40    29.73F
LANDER         FAIR      71  44  37 SE7       29.67F
RIVERTON       FAIR      68  38  33 S9        29.67F
CASPER         FAIR      69  43  38 SW20G29   29.68F
DOUGLAS          N/A     74  42  31 MISG      29.64F

$$
WYZ021-027>030-104>119-241800-
SOUTHERN WYOMING

CITY           SKY/WX    TMP DP  RH WIND       PRES   REMARKS
EVANSTON         N/A     67  36  31 MISG      29.93F
KEMMERER         N/A     64  32  29 W30G39    29.90F
FORT BRIDGER   FAIR      71  31  22 W29G37    29.93F
ROCK SPRINGS   FAIR      69  34  27 W23       29.86F
DIXON            N/A     67  36  31 SW16G25   29.91F
RAWLINS        FAIR      66  35  31 SW30G40   29.82F
SARATOGA       FAIR      64  32  29 MISG      29.87F
LARAMIE        FAIR      67  33  28 W28G36    29.83F
CHEYENNE       FAIR      71  33  24 W20G26    29.77F
TORRINGTON     FAIR      66  41  40 VRB6      29.65F

$$




USA.gov is the U.S. government's official web portal to all federal, state and local government web resources and services.